Location: Katowice
(50.2611°N, 19.0242°E)
Time: 04:15:51
(UTC+02:00)

Courier 1B - All Passes

Search period start: 24 July 2019 00:00
Search period end: 03 August 2019 00:00
Orbit: 962 x 1209 km, 28.3° (Epoch: 23 July)

Date Brightness Start Highest point End Pass type
(mag) Time Alt. Az. Time Alt. Az. Time Alt. Az.
24 Jul - 07:09:04 10° SSW 07:11:38 12° S 07:14:12 10° SSE daylight
24 Jul - 09:01:43 10° SSW 09:04:15 12° S 09:06:46 10° SSE daylight
25 Jul - 06:16:22 10° S 06:18:09 11° SSE 06:19:55 10° SSE daylight
25 Jul - 08:07:42 10° SSW 08:10:46 13° S 08:13:49 10° SSE daylight
26 Jul - 07:14:00 10° SSW 07:17:16 13° S 07:20:31 10° SSE daylight
27 Jul - 06:20:36 10° SSW 06:23:46 13° S 06:26:54 10° SSE daylight
27 Jul - 08:14:00 10° SSW 08:16:24 12° S 08:18:47 10° S daylight
28 Jul - 05:27:33 10° S 05:30:15 12° S 05:32:57 10° SSE daylight
28 Jul - 07:19:48 10° SSW 07:22:55 13° S 07:25:59 10° SSE daylight
29 Jul - 04:35:12 10° S 04:36:45 11° SSE 04:38:19 10° SSE daylight
29 Jul - 06:26:00 10° SSW 06:29:23 13° S 06:32:46 10° SSE daylight
30 Jul - 05:32:30 10° SSW 05:35:52 13° S 05:39:14 10° SSE daylight
30 Jul - 07:26:43 10° SSW 07:28:30 11° SSW 07:30:18 10° S daylight
31 Jul - 04:39:19 10° SSW 04:42:22 13° S 04:45:25 10° SSE daylight
31 Jul - 06:32:12 10° SSW 06:35:00 12° S 06:37:49 10° SSE daylight
01 Aug - 03:46:35 10° S 03:48:51 11° SSE 03:51:10 10° SSE visible
01 Aug - 05:38:17 10° SSW 05:41:29 13° S 05:44:43 10° SSE daylight
02 Aug - 04:44:43 10° SSW 04:47:59 13° S 04:51:17 10° SSE daylight
